AKDT,Max TemperatureF,Mean TemperatureF,Min TemperatureF,Max Dew PointF,MeanDew PointF,Min DewpointF,Max Humidity, Mean Humidity, Min Humidity, Max Sea Level PressureIn, Mean Sea Level PressureIn, Min Sea Level PressureIn, Max VisibilityMiles, Mean VisibilityMiles, Min VisibilityMiles, Max Wind SpeedMPH, Mean Wind SpeedMPH, Max Gust SpeedMPH,PrecipitationIn, CloudCover, Events, WindDirDegrees
2013-3-1,18,8,-2,8,4,-6,0,0,0,30.04,29.87,29.64,10,10,9,12,5,16,T,6,Snow,323
2013-3-2,20,4,-12,6,-4,-16,0,0,0,30.10,30.06,30.03,10,10,10,7,2,8,0.00,1,,294
2013-3-3,18,2,-14,5,-7,-19,0,0,0,30.40,30.27,30.11,10,10,10,5,0,6,0.00,4,,-1
2013-3-4,22,8,-7,13,4,-11,0,0,0,30.42,30.33,30.20,10,10,10,7,0,8,0.00,8,,340
2013-3-5,30,20,10,14,10,7,0,0,0,30.19,30.04,29.90,10,10,9,6,1,7,0.00,6,,150
2013-3-6,25,19,13,19,14,9,0,0,0,29.90,29.84,29.68,10,6,2,7,2,9,0.06,7,Snow,339
2013-3-7,35,25,14,22,18,12,0,0,0,29.63,29.31,29.16,10,10,10,20,6,30,0.00,5,,98
2013-3-8,47,36,24,20,18,15,66,46,18,29.60,29.38,29.24,10,10,10,20,4,33,0.00,4,,129
2013-3-9,38,26,14,30,17,2,89,64,42,30.09,29.88,29.61,10,10,5,16,7,23,T,6,Snow,222
2013-3-10,27,21,15,21,15,7,89,78,52,30.44,30.17,30.02,10,7,1,12,2,15,0.09,8,Snow,335
2013-3-11,23,14,4,18,9,0,93,69,36,30.63,30.57,30.44,10,10,4,14,6,17,T,3,Snow,345
2013-3-12,25,9,-7,4,-1,-10,0,0,0,30.61,30.48,30.33,10,10,10,16,8,21,0.00,0,,347
2013-3-13,24,5,-15,0,-7,-20,0,0,0,30.32,30.16,30.05,10,10,10,28,10,36,0.00,0,,355
2013-3-14,14,3,-8,-6,-13,-18,0,0,0,30.07,29.97,29.95,10,10,10,17,8,22,0.00,2,,41
2013-3-15,19,1,-17,-5,-10,-21,0,0,0,29.96,29.89,29.84,10,10,10,9,2,13,0.00,0,,25
2013-3-16,19,1,-18,-3,-11,-24,0,0,0,30.25,30.08,29.91,10,10,10,5,0,6,0.00,4,,320
2013-3-17,27,12,-4,11,0,-9,0,0,0,30.36,30.30,30.23,10,10,10,6,1,7,0.00,5,,277
2013-3-18,26,6,-14,2,-5,-19,0,0,0,30.22,30.15,30.10,10,10,10,14,2,17,0.00,3,,347
2013-3-19,17,2,-14,-4,-8,-16,0,0,0,30.25,30.21,30.15,10,10,10,15,5,18,0.00,0,,327
2013-3-20,20,1,-19,14,-1,-23,0,0,0,30.21,30.05,29.95,10,7,1,12,3,17,0.02,7,Snow,217
2013-3-21,21,9,-3,18,10,-4,0,0,0,30.10,30.03,29.91,10,5,0,16,4,21,0.13,7,Fog-Snow,188
2013-3-22,22,5,-13,18,9,-20,93,78,36,30.01,29.81,29.71,10,4,0,18,6,24,0.19,7,Fog-Snow,292
2013-3-23,9,-13,-34,-11,-20,-34,85,61,26,30.14,30.08,30.02,10,10,7,7,1,8,0.00,0,,300
2013-3-24,12,-9,-29,-9,-18,-34,78,60,24,30.05,29.99,29.93,10,10,10,10,2,15,0.00,1,,338
2013-3-25,5,-11,-27,-9,-20,-33,83,63,39,30.00,29.90,29.82,10,9,5,15,4,18,T,5,Snow,287
2013-3-26,4,-13,-30,-14,-21,-33,82,60,28,30.27,30.17,30.02,10,10,6,9,2,13,0.00,1,,239
2013-3-27,12,-11,-33,-10,-19,-33,0,0,0,30.30,30.22,30.09,10,10,8,6,1,7,0.00,1,,346
2013-3-28,31,12,-7,13,1,-15,0,0,0,30.08,29.90,29.75,10,10,10,13,2,17,0.00,8,,28
2013-3-29,40,30,19,24,16,11,0,0,0,29.94,29.82,29.76,10,10,10,8,2,10,T,7,,81
2013-3-30,42,34,25,29,24,15,0,0,0,30.22,30.10,29.96,10,10,3,8,2,12,T,8,Snow,138
2013-3-31,40,34,27,29,26,23,0,0,0,30.27,30.23,30.18,10,10,10,6,1,7,T,8,,206